星链-32513 (STARLINK-32513)

导读

STARLINK-32513是美国SpaceX公司星链(Starlink)卫星互联网项目中的一员,于2024年11月14日发射入轨,归入低地球轨道卫星星座。星链项目旨在为全球尤其是偏远地区提供高速低延迟宽带互联网服务,该卫星继承了星链先进技术设计,将参与构建全球规模最大的低轨通信网络,助力实现天地一体化无缝互联覆盖。

Basic Information
目录编号:
61964
目录名称:
STARLINK-32513
国际标识:
2024-210F
轨道中心:
EARTH
卫星名称:
星链-32513
卫星全名:
星链-32513 (STARLINK-32513)
卫星状态:
在轨 (已飞行580 天)
发射日期:
2024-11-14 UTC
国别 :
美国 (US)
星等 :
--
Orbit Information
数据来源 国际轨道数据 AOE轨道数据
星历时间 2026-06-17T10:49:05+0800
18小时前
查看轨道信息
2026-06-17T07:00:00+0800
22小时前
查看轨道信息
半长轴 6861.109km 6861.046km
偏心率 0.0002819 0.0001464
轨道倾角 42.993° 42.998°
近地点辐角 288.312° 286.223°
升交点赤经 323.817° 324.722°
平近点角 71.743° 277.968°
近地点 481.037km 481.904km
远地点 484.907km 483.914km
周期 94.265分钟 94.264分钟
每日圈数 15.27606 15.276271
Detailed Information
固有亮度:
5
最大亮度:
2.5
卫星平台:
Starlink V1.0
覆盖范围:
全球
运营商:
太空探索技术公司
运营商所在国:
美国
制造商(研发单位):
太空探索技术公司
制造商所在国:
美国
使用方式:
暂无
Satellite Introduction
Starlink 计划是 SpaceX 推出的全球卫星互联网项目,通过发射低轨道卫星,为全球尤其是偏远地区提供高速、低延迟的互联网服务。自 2019 年起,Starlink 已部署数千颗卫星,旨在缩小全球数字鸿沟,推动互联网普及。该项目还为军事、航空等行业提供通信支持,带来广泛经济效益。
2D Orbit Map
3D Orbit Map
Orbit Altitude Analysis Chart
Orbit Inclination Analysis Chart
Orbit Comprehensive Analysis Chart
View Comprehensive Chart